JAS12 UNNT-UNNT

Flight info

Callsign JAS12
Flight time 0h 15m
Altitude 6000
Route NATIR NATI1K
Aircraft C25C/M-SDE2E3FGHRWXY/LB1

Departure

Time 2026-04-30 11:16
Airport Novosibirsk Tolmachevo Airport (UNNT)

Arrival

Time 2026-04-30 11:31
Airport Novosibirsk Tolmachevo Airport (UNNT)
Time Latitude Longitude Altitude Speed Heading
2026-04-30 11:15 54.76235 82.45476 4959 ft 241 kts 190°
2026-04-30 11:16 54.74583 82.44970 4825 ft 241 kts 190°
2026-04-30 11:16 54.72927 82.44608 4659 ft 240 kts 183°
2026-04-30 11:16 54.71402 82.45691 4423 ft 247 kts 138°
2026-04-30 11:16 54.70635 82.48340 4191 ft 253 kts 101°
2026-04-30 11:17 54.70909 82.51313 4036 ft 255 kts 68°
2026-04-30 11:17 54.71727 82.53992 4006 ft 249 kts 61°
2026-04-30 11:17 54.72586 82.56577 3986 ft 245 kts 62°
2026-04-30 11:17 54.73417 82.59139 3977 ft 243 kts 62°
2026-04-30 11:18 54.74234 82.61679 3973 ft 241 kts 62°
2026-04-30 11:18 54.75857 82.66719 3979 ft 239 kts 62°
2026-04-30 11:18 54.76667 82.69247 3977 ft 239 kts 62°
2026-04-30 11:19 54.77474 82.71760 3975 ft 238 kts 62°
2026-04-30 11:19 54.78271 82.74240 3973 ft 238 kts 62°
2026-04-30 11:19 54.79074 82.76733 3974 ft 234 kts 62°
2026-04-30 11:19 54.79865 82.79191 3968 ft 228 kts 63°
2026-04-30 11:20 54.80621 82.81539 3968 ft 224 kts 62°
2026-04-30 11:20 54.81374 82.83875 3964 ft 221 kts 62°
2026-04-30 11:20 54.82123 82.86198 3962 ft 220 kts 62°
2026-04-30 11:20 54.82867 82.88498 3966 ft 219 kts 62°
2026-04-30 11:21 54.83619 82.90818 3967 ft 218 kts 63°
2026-04-30 11:21 54.84361 82.93104 3954 ft 226 kts 62°
2026-04-30 11:21 54.85154 82.95542 3968 ft 238 kts 62°
2026-04-30 11:21 54.85992 82.98115 3967 ft 250 kts 62°
2026-04-30 11:22 54.86862 83.00783 3966 ft 258 kts 61°
2026-04-30 11:22 54.87758 83.03535 3970 ft 265 kts 62°
2026-04-30 11:22 54.88670 83.06351 3984 ft 271 kts 62°
2026-04-30 11:22 54.89678 83.09162 3969 ft 277 kts 55°
2026-04-30 11:23 54.91105 83.11403 3964 ft 280 kts 32°
2026-04-30 11:23 54.92813 83.13046 3979 ft 282 kts 28°
2026-04-30 11:23 54.96281 83.16428 3970 ft 287 kts 21°
2026-04-30 11:24 54.98164 83.16564 3969 ft 262 kts 343°
2026-04-30 11:24 54.99781 83.15535 3963 ft 240 kts 335°
2026-04-30 11:24 55.00989 83.13796 4015 ft 217 kts 294°
2026-04-30 11:25 55.01526 83.08850 3563 ft 243 kts 274°
2026-04-30 11:25 55.01685 83.05650 3016 ft 265 kts 272°
2026-04-30 11:25 55.01159 83.00100 2625 ft 213 kts 224°
2026-04-30 11:26 54.99332 82.96682 2647 ft 181 kts 254°
2026-04-30 11:26 54.99279 82.94551 2515 ft 177 kts 277°
2026-04-30 11:26 54.99542 82.92453 2244 ft 179 kts 266°
2026-04-30 11:27 54.99298 82.90324 2068 ft 178 kts 254°
2026-04-30 11:27 54.99162 82.88262 2017 ft 172 kts 274°
2026-04-30 11:27 54.99295 82.86270 1984 ft 160 kts 270°
2026-04-30 11:27 54.99454 82.84404 1969 ft 158 kts 296°
2026-04-30 11:28 55.01041 82.81824 1777 ft 165 kts 319°
2026-04-30 11:28 55.01908 82.80519 1734 ft 146 kts 313°
2026-04-30 11:28 55.02295 82.79185 1645 ft 120 kts 278°
2026-04-30 11:29 55.02385 82.77646 1482 ft 137 kts 269°
2026-04-30 11:29 55.02323 82.75956 1422 ft 146 kts 258°
2026-04-30 11:29 55.01929 82.72341 949 ft 146 kts 257°
2026-04-30 11:30 55.01631 82.69258 569 ft 125 kts 258°
2026-04-30 11:30 55.01492 82.67771 410 ft 115 kts 258°
2026-04-30 11:30 55.01383 82.66601 368 ft 68 kts 261°
2026-04-30 11:31 55.01322 82.65923 366 ft 51 kts 261°
2026-04-30 11:31 55.01270 82.65340 367 ft 46 kts 259°
2026-04-30 11:31 55.01213 82.65057 366 ft 14 kts 194°
2026-04-30 11:31 55.01123 82.65074 366 ft 13 kts 171°
2026-04-30 11:32 55.01035 82.65098 367 ft 13 kts 171°
2026-04-30 11:32 55.00948 82.65125 367 ft 13 kts 170°
2026-04-30 11:32 55.00931 82.65136 367 ft 0 kts 140°
2026-04-30 11:33 55.00884 82.65241 367 ft 16 kts 86°
2026-04-30 11:33 55.00904 82.65508 367 ft 27 kts 81°
2026-04-30 11:33 55.00933 82.65826 367 ft 26 kts 81°
2026-04-30 11:33 55.00959 82.66135 367 ft 25 kts 81°
2026-04-30 11:34 55.00994 82.66296 366 ft 12 kts 50°
2026-04-30 11:34 55.01034 82.66403 366 ft 5 kts 27°
2026-04-30 11:34 55.01066 82.66402 366 ft 5 kts 351°
2026-04-30 11:34 55.01085 82.66396 366 ft 0 kts 349°
2026-04-30 11:36 55.01083 82.66397 366 ft 2 kts 349°
2026-04-30 11:36 55.01061 82.66404 366 ft 4 kts 349°
2026-04-30 11:36 55.01053 82.66407 366 ft 0 kts 349°
2026-04-30 11:36 55.01044 82.66407 366 ft 4 kts 11°
2026-04-30 11:37 55.01027 82.66389 366 ft 0 kts 73°
2026-04-30 11:38 55.01035 82.66438 366 ft 11 kts 73°
2026-04-30 11:38 55.01085 82.66649 366 ft 26 kts 68°
2026-04-30 11:38 55.01078 82.66933 366 ft 20 kts 92°
2026-04-30 11:38 55.01097 82.67159 366 ft 16 kts 81°
2026-04-30 11:39 55.01102 82.67302 366 ft 12 kts 81°
2026-04-30 11:39 55.01099 82.67421 366 ft 7 kts 135°
2026-04-30 11:39 55.01055 82.67446 366 ft 9 kts 171°
2026-04-30 11:39 55.00971 82.67468 366 ft 16 kts 172°
2026-04-30 11:40 55.00842 82.67496 366 ft 22 kts 173°
2026-04-30 11:40 55.00767 82.67421 366 ft 0 kts 245°
2026-04-30 11:40 55.00769 82.67429 366 ft 3 kts 245°
2026-04-30 11:40 55.00764 82.67405 366 ft 2 kts 252°
2026-04-30 11:41 55.00760 82.67390 366 ft 6 kts 247°
2026-04-30 11:41 55.00743 82.67333 366 ft 1 kts 257°
2026-04-30 11:41 55.00733 82.67296 366 ft 6 kts 330°
2026-04-30 11:41 55.00727 82.67301 366 ft 2 kts 343°
2026-04-30 11:42 55.00721 82.67303 366 ft 0 kts